Overview Statistics Trail Chart Weather Telemetry Raw packets
 

This is the latest recevied weather packets stored in our database for station/object s59zo-6. If no packets are shown the sender has not sent any weather packets the latest 10 day(s).

<< 92 93 94 95 96 97 98 >>
Time Temp. Humidity Pressure Rain* Wind** Luminosity Snow
1787919904 32.78° C 40% 1017.4 hPa 0 mm - - -
1787919604 32.78° C 40% 1017.5 hPa 0 mm - - -
1787919305 32.22° C 43% 1017.6 hPa 0 mm - - -
1787919004 32.22° C 45% 1017.6 hPa 0 mm - - -
1787918704 31.67° C 47% 1017.5 hPa 0 mm - - -
1787918414 31.67° C 47% 1017.6 hPa 0 mm - - -
1787918104 31.67° C 48% 1017.6 hPa 0 mm - - -
1787917805 31.11° C 49% 1017.5 hPa 0 mm - - -
1787917505 31.11° C 47% 1017.4 hPa 0 mm - - -
1787917204 31.11° C 47% 1017.5 hPa 0 mm - - -
1787916904 31.11° C 47% 1017.4 hPa 0 mm - - -
1787916605 30.56° C 46% 1017.3 hPa 0 mm - - -
1787916304 30.56° C 47% 1017.4 hPa 0 mm - - -
1787916005 30.56° C 46% 1017.4 hPa 0 mm - - -
1787915704 30.56° C 48% 1017.4 hPa 0 mm - - -
1787915405 30.56° C 48% 1017.6 hPa 0 mm - - -
1787915104 30.56° C 46% 1017.6 hPa 0 mm - - -
1787914805 30.56° C 47% 1017.8 hPa 0 mm - - -
1787914504 30.56° C 47% 1017.7 hPa 0 mm - - -
1787914205 30.56° C 46% 1017.8 hPa 0 mm - - -
1787913904 30.56° C 46% 1017.8 hPa 0 mm - - -
1787913605 30.56° C 47% 1017.9 hPa 0 mm - - -
1787913304 30° C 48% 1018 hPa 0 mm - - -
1787913005 30° C 48% 1018.1 hPa 0 mm - - -
1787912704 29.44° C 48% 1018.2 hPa 0 mm - - -

* Rain latest hour (hover to see other rain measurements)
** Current wind speed in m/s (hover to see current wind gust speed)